(°C)
-16°
-15°
-15°
-16°
-17°
-17°
-18°
(°C)
-21°
-20°
-20°
-21°
-22°
-22°
-23°
SE
SE
SE
SE
SE
SE
SSE
(كم/سا)
6-6
6-6
6-7
6-10
7-9
7-8
7-9
(مم)
0
0
0
0
0
0
0
(%)
0
0
0
0
0
0
0

مستوى ارتفاع الشمس

/ 12.4°
sun-icon
UV 1
08:59
17:12
قمر المساء (244°)
23:35
11:17

متر ل55.31°شمال 61.5°شرق (USCC)

الوقت الشروط درجة الحرارة/
نقطة الندى
رياح مجال رؤية حالة الطقس غيوم الضغط تغيير خام
IFR °C / °C 10º 2kt 2200m Mist Smoke Vertical Visibility of 0ft. 1034 No Significant change. Runway 09: Dry snow, 11-25% contamination with 3mm, friction coefficient 0.50. USCC 230930Z 01001MPS 2200 BR FU NSC M16/M18 Q1034 R09/420350 NOSIG RMK QFE754
LIFR °C / °C 120º 4kt 1600m. Runway 09: Visual range is 1600m and increasing. Smoke Mist Vertical Visibility of 0ft. 1033 No Significant change. Runway 09: Dry snow, 11-25% contamination with 3mm, friction coefficient 0.50. USCC 230900Z 12002MPS 1600 1400W R09/1600U BR FU FEW010 M16/M18 Q1033 R09/420350 NOSIG RMK QFE754
IFR °C / °C 130º 4kt 2100m Mist Smoke Vertical Visibility of 0ft. 1033 No Significant change. Runway 09: Dry snow, 11-25% contamination with 3mm, friction coefficient 0.50. USCC 230830Z 13002MPS 2100 BR FU FEW010 M16/M18 Q1033 R09/420350 NOSIG RMK QFE754
IFR °C / °C 120º 2kt 2500m Mist Smoke Vertical Visibility of 0ft. 1033 No Significant change. Runway 09: Dry snow, 11-25% contamination with 3mm, friction coefficient 0.50. USCC 230800Z 12001MPS 2500 BR FU FEW010 M17/M19 Q1033 R09/420350 NOSIG RMK QFE754
IFR °C / °C variable 0kt 3000m Mist Smoke Vertical Visibility of 0ft. 1033 No Significant change. Runway 09: Dry snow, 11-25% contamination with 3mm, friction coefficient 0.50. USCC 230730Z 00000MPS 3000 BR FU FEW010 M19/M21 Q1033 R09/420350 NOSIG RMK QFE754
IFR °C / °C variable 0kt 3400m Mist Smoke Vertical Visibility of 0ft. 1033 No Significant change. Runway 09: Dry snow, 11-25% contamination with 3mm, friction coefficient 0.50. USCC 230700Z 00000MPS 3400 BR FU FEW010 M20/M22 Q1033 R09/420350 NOSIG RMK QFE754
IFR °C / °C variable 0kt 3300m Mist Smoke Vertical Visibility of 0ft. 1033 No Significant change. Runway 09: Dry snow, 11-25% contamination with 3mm, friction coefficient 0.50. USCC 230630Z 00000MPS 3300 BR FU FEW010 M22/M24 Q1033 R09/420350 NOSIG RMK QFE754
IFR °C / °C variable 0kt 3100m Mist Smoke Vertical Visibility of 0ft. 1033 No Significant change. Runway 27: Dry snow, 11-25% contamination with 3mm, friction coefficient 0.50. USCC 230600Z 00000MPS 3100 BR FU FEW010 M22/M25 Q1033 R27/420350 NOSIG RMK QFE754
IFR °C / °C 110º 2kt 3300m Mist Smoke Vertical Visibility of 0ft. 1032 No Significant change. Runway 27: Dry snow, 11-25% contamination with 3mm, friction coefficient 0.50. USCC 230530Z 11001MPS 3300 BR FU FEW010 M23/M26 Q1032 R27/420350 NOSIG RMK QFE754
IFR °C / °C 230º 2kt 3400m Mist Smoke Vertical Visibility of 0ft. 1032 No Significant change. Runway 27: Dry snow, 11-25% contamination with 3mm, friction coefficient 0.50. USCC 230500Z 23001MPS 3400 BR FU FEW010 M22/M25 Q1032 R27/420350 NOSIG RMK QFE754
IFR °C / °C 310º 2kt 4500m Mist Smoke Vertical Visibility of 0ft. 1032 No Significant change. Runway 27: Dry snow, 11-25% contamination with 3mm, friction coefficient 0.50. USCC 230430Z 31001MPS 4500 BR FU FEW010 M24/M27 Q1032 R27/420350 NOSIG RMK QFE754
IFR °C / °C 150º 2kt 3800m Mist Smoke Vertical Visibility of 0ft. 1032 No Significant change. Runway 27: Dry snow, 11-25% contamination with 3mm, friction coefficient 0.50. USCC 230400Z 15001MPS 3800 BR FU NSC M24/M26 Q1032 R27/420350 NOSIG RMK QFE754
IFR °C / °C 110º 2kt 4100m Mist Smoke Vertical Visibility of 0ft. 1032 No Significant change. Runway 27: Dry snow, 11-25% contamination with 3mm, friction coefficient 0.50. USCC 230330Z 11001MPS 4100 BR FU FEW007 M24/M26 Q1032 R27/420350 NOSIG RMK QFE753
IFR °C / °C variable 0kt 3600m Mist Smoke Vertical Visibility of 0ft. 1032 No Significant change. Runway 27: Dry snow, 11-25% contamination with 3mm, friction coefficient 0.50. USCC 230300Z 00000MPS 3600 BR FU FEW007 M24/M27 Q1032 R27/420350 NOSIG RMK QFE754
IFR °C / °C variable 0kt 3600m Mist Smoke Vertical Visibility of 0ft. 1032 No Significant change. Runway 27: Dry snow, 11-25% contamination with 3mm, friction coefficient 0.50. USCC 230230Z 00000MPS 3600 BR FU FEW007 M25/M27 Q1032 R27/420350 NOSIG RMK QFE753
IFR °C / °C variable 0kt 3900m Mist Smoke Vertical Visibility of 0ft. 1031 No Significant change. Runway 27: Dry snow, 11-25% contamination with 3mm, friction coefficient 0.50. USCC 230200Z 00000MPS 3900 BR FU FEW006 M24/M27 Q1031 R27/420350 NOSIG RMK QFE753
IFR °C / °C variable 0kt 3300m Mist Smoke Vertical Visibility of 0ft. 1031 No Significant change. Runway 27: Dry snow, 11-25% contamination with 3mm, friction coefficient 0.50. USCC 230130Z 00000MPS 3300 BR FU FEW006 M23/M26 Q1031 R27/420350 NOSIG RMK QFE753
IFR °C / °C 200º 2kt 2900m Mist Smoke Vertical Visibility of 0ft. 1031 No Significant change. Runway 27: Dry snow, 11-25% contamination with 3mm, friction coefficient 0.50. USCC 230100Z 20001MPS 2900 BR FU SCT005 M22/M24 Q1031 R27/420350 NOSIG RMK QFE753
IFR °C / °C variable 0kt 3800m Mist Smoke Vertical Visibility of 0ft. 1031 No Significant change. Runway 09: Dry snow, 11-25% contamination with 3mm, friction coefficient 0.50. USCC 230030Z 00000MPS 3800 BR FU SCT003 M23/M26 Q1031 R09/420350 NOSIG RMK QBB100 QFE752
IFR °C / °C variable 0kt 3800m Mist Smoke Vertical Visibility of 0ft. 1031 No Significant change. Runway 09: Dry snow, 11-25% contamination with 3mm, friction coefficient 0.50. USCC 230000Z 00000MPS 3800 BR FU SCT003 M23/M26 Q1031 R09/420350 NOSIG RMK QBB100 QFE752
IFR °C / °C variable 0kt 3800m Mist Smoke Vertical Visibility of 0ft. 1031 No Significant change. Runway 09: Dry snow, 11-25% contamination with 3mm, friction coefficient 0.50. USCC 222330Z 00000MPS 3800 BR FU SCT005 M24/M26 Q1031 R09/420350 NOSIG RMK QFE752
IFR °C / °C 50º 2kt 3400m Mist Smoke Vertical Visibility of 0ft. 1031 No Significant change. Runway 09: Dry snow, 11-25% contamination with 3mm, friction coefficient 0.50. USCC 222300Z 05001MPS 3400 BR FU FEW005 M23/M26 Q1031 R09/420350 NOSIG RMK QFE752
IFR °C / °C 100º 2kt 3500m Mist Smoke Vertical Visibility of 0ft. 1031 No Significant change. Runway 09: Dry snow, 11-25% contamination with 3mm, friction coefficient 0.50. USCC 222230Z 10001MPS 3500 BR FU FEW005 M23/M25 Q1031 R09/420350 NOSIG RMK QFE752
IFR °C / °C 120º 2kt 3500m Mist Smoke Vertical Visibility of 0ft. 1031 No Significant change. Runway 27: Dry snow, 11-25% contamination with 3mm, friction coefficient 0.50. USCC 222200Z 12001MPS 3500 BR FU FEW005 M22/M25 Q1031 R27/420350 NOSIG RMK QFE753

IFR

°C / °C

[أكثر]
رياح 10º 2kt
مجال رؤية 2200m
حالة الطقس Mist Smoke
غيوم Vertical Visibility of 0ft.
الضغط 1034
تغيير No Significant change. Runway 09: Dry snow, 11-25% contamination with 3mm, friction coefficient 0.50.
خام USCC 230930Z 01001MPS 2200 BR FU NSC M16/M18 Q1034 R09/420350 NOSIG RMK QFE754

LIFR

°C / °C

[أكثر]
رياح 120º 4kt
مجال رؤية 1600m. Runway 09: Visual range is 1600m and increasing.
حالة الطقس Smoke Mist
غيوم Vertical Visibility of 0ft.
الضغط 1033
تغيير No Significant change. Runway 09: Dry snow, 11-25% contamination with 3mm, friction coefficient 0.50.
خام USCC 230900Z 12002MPS 1600 1400W R09/1600U BR FU FEW010 M16/M18 Q1033 R09/420350 NOSIG RMK QFE754

IFR

°C / °C

[أكثر]
رياح 130º 4kt
مجال رؤية 2100m
حالة الطقس Mist Smoke
غيوم Vertical Visibility of 0ft.
الضغط 1033
تغيير No Significant change. Runway 09: Dry snow, 11-25% contamination with 3mm, friction coefficient 0.50.
خام USCC 230830Z 13002MPS 2100 BR FU FEW010 M16/M18 Q1033 R09/420350 NOSIG RMK QFE754

IFR

°C / °C

[أكثر]
رياح 120º 2kt
مجال رؤية 2500m
حالة الطقس Mist Smoke
غيوم Vertical Visibility of 0ft.
الضغط 1033
تغيير No Significant change. Runway 09: Dry snow, 11-25% contamination with 3mm, friction coefficient 0.50.
خام USCC 230800Z 12001MPS 2500 BR FU FEW010 M17/M19 Q1033 R09/420350 NOSIG RMK QFE754

IFR

°C / °C

[أكثر]
رياح variable 0kt
مجال رؤية 3000m
حالة الطقس Mist Smoke
غيوم Vertical Visibility of 0ft.
الضغط 1033
تغيير No Significant change. Runway 09: Dry snow, 11-25% contamination with 3mm, friction coefficient 0.50.
خام USCC 230730Z 00000MPS 3000 BR FU FEW010 M19/M21 Q1033 R09/420350 NOSIG RMK QFE754

IFR

°C / °C

[أكثر]
رياح variable 0kt
مجال رؤية 3400m
حالة الطقس Mist Smoke
غيوم Vertical Visibility of 0ft.
الضغط 1033
تغيير No Significant change. Runway 09: Dry snow, 11-25% contamination with 3mm, friction coefficient 0.50.
خام USCC 230700Z 00000MPS 3400 BR FU FEW010 M20/M22 Q1033 R09/420350 NOSIG RMK QFE754

IFR

°C / °C

[أكثر]
رياح variable 0kt
مجال رؤية 3300m
حالة الطقس Mist Smoke
غيوم Vertical Visibility of 0ft.
الضغط 1033
تغيير No Significant change. Runway 09: Dry snow, 11-25% contamination with 3mm, friction coefficient 0.50.
خام USCC 230630Z 00000MPS 3300 BR FU FEW010 M22/M24 Q1033 R09/420350 NOSIG RMK QFE754

IFR

°C / °C

[أكثر]
رياح variable 0kt
مجال رؤية 3100m
حالة الطقس Mist Smoke
غيوم Vertical Visibility of 0ft.
الضغط 1033
تغيير No Significant change. Runway 27: Dry snow, 11-25% contamination with 3mm, friction coefficient 0.50.
خام USCC 230600Z 00000MPS 3100 BR FU FEW010 M22/M25 Q1033 R27/420350 NOSIG RMK QFE754

IFR

°C / °C

[أكثر]
رياح 110º 2kt
مجال رؤية 3300m
حالة الطقس Mist Smoke
غيوم Vertical Visibility of 0ft.
الضغط 1032
تغيير No Significant change. Runway 27: Dry snow, 11-25% contamination with 3mm, friction coefficient 0.50.
خام USCC 230530Z 11001MPS 3300 BR FU FEW010 M23/M26 Q1032 R27/420350 NOSIG RMK QFE754

IFR

°C / °C

[أكثر]
رياح 230º 2kt
مجال رؤية 3400m
حالة الطقس Mist Smoke
غيوم Vertical Visibility of 0ft.
الضغط 1032
تغيير No Significant change. Runway 27: Dry snow, 11-25% contamination with 3mm, friction coefficient 0.50.
خام USCC 230500Z 23001MPS 3400 BR FU FEW010 M22/M25 Q1032 R27/420350 NOSIG RMK QFE754

IFR

°C / °C

[أكثر]
رياح 310º 2kt
مجال رؤية 4500m
حالة الطقس Mist Smoke
غيوم Vertical Visibility of 0ft.
الضغط 1032
تغيير No Significant change. Runway 27: Dry snow, 11-25% contamination with 3mm, friction coefficient 0.50.
خام USCC 230430Z 31001MPS 4500 BR FU FEW010 M24/M27 Q1032 R27/420350 NOSIG RMK QFE754

IFR

°C / °C

[أكثر]
رياح 150º 2kt
مجال رؤية 3800m
حالة الطقس Mist Smoke
غيوم Vertical Visibility of 0ft.
الضغط 1032
تغيير No Significant change. Runway 27: Dry snow, 11-25% contamination with 3mm, friction coefficient 0.50.
خام USCC 230400Z 15001MPS 3800 BR FU NSC M24/M26 Q1032 R27/420350 NOSIG RMK QFE754

IFR

°C / °C

[أكثر]
رياح 110º 2kt
مجال رؤية 4100m
حالة الطقس Mist Smoke
غيوم Vertical Visibility of 0ft.
الضغط 1032
تغيير No Significant change. Runway 27: Dry snow, 11-25% contamination with 3mm, friction coefficient 0.50.
خام USCC 230330Z 11001MPS 4100 BR FU FEW007 M24/M26 Q1032 R27/420350 NOSIG RMK QFE753

IFR

°C / °C

[أكثر]
رياح variable 0kt
مجال رؤية 3600m
حالة الطقس Mist Smoke
غيوم Vertical Visibility of 0ft.
الضغط 1032
تغيير No Significant change. Runway 27: Dry snow, 11-25% contamination with 3mm, friction coefficient 0.50.
خام USCC 230300Z 00000MPS 3600 BR FU FEW007 M24/M27 Q1032 R27/420350 NOSIG RMK QFE754

IFR

°C / °C

[أكثر]
رياح variable 0kt
مجال رؤية 3600m
حالة الطقس Mist Smoke
غيوم Vertical Visibility of 0ft.
الضغط 1032
تغيير No Significant change. Runway 27: Dry snow, 11-25% contamination with 3mm, friction coefficient 0.50.
خام USCC 230230Z 00000MPS 3600 BR FU FEW007 M25/M27 Q1032 R27/420350 NOSIG RMK QFE753

IFR

°C / °C

[أكثر]
رياح variable 0kt
مجال رؤية 3900m
حالة الطقس Mist Smoke
غيوم Vertical Visibility of 0ft.
الضغط 1031
تغيير No Significant change. Runway 27: Dry snow, 11-25% contamination with 3mm, friction coefficient 0.50.
خام USCC 230200Z 00000MPS 3900 BR FU FEW006 M24/M27 Q1031 R27/420350 NOSIG RMK QFE753

IFR

°C / °C

[أكثر]
رياح variable 0kt
مجال رؤية 3300m
حالة الطقس Mist Smoke
غيوم Vertical Visibility of 0ft.
الضغط 1031
تغيير No Significant change. Runway 27: Dry snow, 11-25% contamination with 3mm, friction coefficient 0.50.
خام USCC 230130Z 00000MPS 3300 BR FU FEW006 M23/M26 Q1031 R27/420350 NOSIG RMK QFE753

IFR

°C / °C

[أكثر]
رياح 200º 2kt
مجال رؤية 2900m
حالة الطقس Mist Smoke
غيوم Vertical Visibility of 0ft.
الضغط 1031
تغيير No Significant change. Runway 27: Dry snow, 11-25% contamination with 3mm, friction coefficient 0.50.
خام USCC 230100Z 20001MPS 2900 BR FU SCT005 M22/M24 Q1031 R27/420350 NOSIG RMK QFE753

IFR

°C / °C

[أكثر]
رياح variable 0kt
مجال رؤية 3800m
حالة الطقس Mist Smoke
غيوم Vertical Visibility of 0ft.
الضغط 1031
تغيير No Significant change. Runway 09: Dry snow, 11-25% contamination with 3mm, friction coefficient 0.50.
خام USCC 230030Z 00000MPS 3800 BR FU SCT003 M23/M26 Q1031 R09/420350 NOSIG RMK QBB100 QFE752

IFR

°C / °C

[أكثر]
رياح variable 0kt
مجال رؤية 3800m
حالة الطقس Mist Smoke
غيوم Vertical Visibility of 0ft.
الضغط 1031
تغيير No Significant change. Runway 09: Dry snow, 11-25% contamination with 3mm, friction coefficient 0.50.
خام USCC 230000Z 00000MPS 3800 BR FU SCT003 M23/M26 Q1031 R09/420350 NOSIG RMK QBB100 QFE752

IFR

°C / °C

[أكثر]
رياح variable 0kt
مجال رؤية 3800m
حالة الطقس Mist Smoke
غيوم Vertical Visibility of 0ft.
الضغط 1031
تغيير No Significant change. Runway 09: Dry snow, 11-25% contamination with 3mm, friction coefficient 0.50.
خام USCC 222330Z 00000MPS 3800 BR FU SCT005 M24/M26 Q1031 R09/420350 NOSIG RMK QFE752

IFR

°C / °C

[أكثر]
رياح 50º 2kt
مجال رؤية 3400m
حالة الطقس Mist Smoke
غيوم Vertical Visibility of 0ft.
الضغط 1031
تغيير No Significant change. Runway 09: Dry snow, 11-25% contamination with 3mm, friction coefficient 0.50.
خام USCC 222300Z 05001MPS 3400 BR FU FEW005 M23/M26 Q1031 R09/420350 NOSIG RMK QFE752

IFR

°C / °C

[أكثر]
رياح 100º 2kt
مجال رؤية 3500m
حالة الطقس Mist Smoke
غيوم Vertical Visibility of 0ft.
الضغط 1031
تغيير No Significant change. Runway 09: Dry snow, 11-25% contamination with 3mm, friction coefficient 0.50.
خام USCC 222230Z 10001MPS 3500 BR FU FEW005 M23/M25 Q1031 R09/420350 NOSIG RMK QFE752

IFR

°C / °C

[أكثر]
رياح 120º 2kt
مجال رؤية 3500m
حالة الطقس Mist Smoke
غيوم Vertical Visibility of 0ft.
الضغط 1031
تغيير No Significant change. Runway 27: Dry snow, 11-25% contamination with 3mm, friction coefficient 0.50.
خام USCC 222200Z 12001MPS 3500 BR FU FEW005 M22/M25 Q1031 R27/420350 NOSIG RMK QFE753

انقر ل55.31°شمال 61.5°شرق (USCC)

From till


From till Wind 190º 6kt. Gust 16kt. Visibility 3100m. Mist Smoke . Few Clouds 600ft. Scattered Clouds 1600ft.
Temporarly from till Wind 10º 6kt. Visibility 305.775m. freezing Fog . Scattered Clouds 300ft.

خام: TAF USCC 230800Z 2309/2409 19003G08MPS 3100 BR FU FEW006 SCT016 TEMPO 2309/2409 01003MPS 0300 FZFG SCT003

رادار وهطول الأمطار التنبؤ الآني ل55.31°شمال 61.5°شرق

رذاذ
ضوء
معتدل
ثقيل
ثقيل جدا
وابل

مؤشر المكان يشير الى 55.31°شمال 61.5°شرق. تظهر في هذه الرسوم المتحركة هطول الامطار بالرادار للساعة الماضية, و توقعات 1h. رذاذ أو تساقط ثلوج خفيف قد يكون غير مرئي للرادار. كثافة هطول الأمطار مرمزة بالألوان وتتراوح من الأزرق الفاتح إلى البرتقالي.

صور الأقمار الصناعية الملتقطة و الأمطار حالياً ل55.31°شمال 61.5°شرق

المؤشر يدل على موقع 55.31°شمال 61.5°شرق. [أكثر]

تجمع صورة الأقمار الصناعية في الوقت الفعلي بين الضوء المرئي أثناء النهار والأشعة تحت الحمراء أثناء الليل. لا تبدو الصورة مظلمة ليلاً، لأن الأشعة تحت الحمراء يمكنها الكشف عن الاختلافات في درجة الحرارة. لسوء الحظ ، يصعب التمييز بين السحب المنخفضة والضباب ودرجات حرارة الأرض ، وبالتالي يمكن أن تكون الصور غير مرئية تقريبًا أثناء الليل. يتم تحديث صور الأقمار الصناعية Meteosat الخاصة بأوروبا في الوقت الفعلي كل 5 دقائق، بينما يتم تحديث صور GOES-16 / GOES-17 (أمريكا الشمالية والجنوبية) و Himawari (آسيا) كل 10 دقائق.

حقوق النسخ 2022 EUMETSAT / meteoblue. / حقوق النسخ 2022 meteoblue